Погода в Кочки

Погода в Кочки : погода сейчас, прогноз погоды и архив. Всё, что Вы хотите узнать о погоде в Кочки!

Хотите узнать прогноз погоды в Кочки? Тогда Вам сюда: Погода в Кочки

Поиск расширенной информации на нашем сайте:

Другие новости

Новости СМИ2

Главная страница сайта

Новости сайта

02.10.2013

Напоминаем, что на нашем новом сайте вы можете получить высокодетализированные прогнозы погоды по пунктам России, СНГ и мира (включающие важные для авиации метеовеличины, такие как направление и скорость ветра, видимость, явления погоды, количество и форма облачности, нижняя и верхняя граница облачности), а также ознакомиться с разнообразными материалами по авиационной метеорологии и подборкой полезных ссылок на эту тему.

Сайт Метеоцентр.Азия посвящён разработке технологий оптимизации авиаметеорологического обслуживания, включая проектирование и перспективное создание нескольких автоматизированных авиаметеорологических систем:
- система выпуска высокодетальных прогностических карт явлений погоды для нижнего воздушного пространства по России и ближнему зарубежью;
- система верификации прогнозов TAF (выпускаемых синоптиками официальных АМСГ РФ и ближнего зарубежья) и AUTOTAF (выпускаемых сайтом Метеоцентр.Азия) - выявление ошибок, онлайн-сопоставление с фактической погодой METAR, автоматическое внесение коррективов в прогнозы при резком отклонении фактической погоды от прогноза, подсчёт оправдываемости прогнозов по элементам и в целом;
- система обработки, анализа и отображения авиаметеорологической информации для применения провайдерами метеорологической информации.

Рекомендуем: Минтруда план по созданию безбарьерной среды.

Погода в Кочки - сегодня

Время (UTC), дата Ветер
(°,м/с) 
Видим.   Явления Облачность Т
(°С)
Тd
(°С)
f(%) Тe
(°С)
Pmin
(гПа)
dP
(гПа)
Po
(мм)
O2
(г/м3)
Тmin Tmax R s Состояние
почвы
00 28.03.17 210 (ЮЗ) 20000 м    10/10 600 м 
[Sc]
+0.9 -0 94 -2  1022.1  0.3  751  302  -2      24  неравномерный
мокрый или
старый снег
100% 
03 28.03.17 200 (Ю) 10 км    10/10 600 м 
[Sc]
+1.3 +0.2 92 -1  1022.4  0.3  752  301           
06 28.03.17 200 (Ю) 20000 м    10/6 1000 м средняя 
[Sc|Ac As]
+4.1 +0.5 77 +2  1021.1  -1  751  298           
09 28.03.17 190 (Ю) 6{10}  20000 м    8/0 верхняя 
[Ci fib]
+5.6 -0.8 63 +3  1018.7  -2.3  749  296           
12 28.03.17 210 (ЮЗ) 5{10}  20000 м    10/4 600 м кучево-дожд., средняя 
[Cb calv|Ac As]
+3.5 -1.7 69 +1  1018.8  -0.1  749  298    +5.7       
15 28.03.17 200 (Ю) 20000 м    10/0 средняя, верхняя 
[Ac trans|Ci sp]
+2.4 -1.7 74 1018.7  -0.2  749  299           
18 28.03.17 190 (Ю) 20000 м    10/0 верхняя 
[Ci sp]
+1.6 -1.8 78 -1  1017.9  -0.9  748  300           
21 28.03.17 170 (Ю) 20000 м    3/0 средняя 
[Ac trans]
+0.9 -1.9 82 -1  1016.1  -1.7  747  300           
00 29.03.17 180 (Ю) 4{11}  20000 м    10/0 средняя, верхняя 
[Ac As|Ci fib]
+1 -2 80 -1  1013.2  -2.8  745  299  +0.8      17  неравномерный
мокрый или
старый снег
100% 
03 29.03.17 180 (Ю) 20000 м    10/0 верхняя 
[Cs]
+2.7 -1.2 75 1011.1  -2  743  297  +0.8         
06 29.03.17 180 (Ю) 5{11}  20000 м    10/0 верхняя 
[Cs]
+4.8 -0.4 69 +3  1009.2  -1.7  742  294           
09 29.03.17 210 (ЮЗ) 7-10{12}  20000 м    10/5 600 м кучево-дожд., средняя 
[Cb calv|Ac As]
+5 +0.2 71 +2  1009.4  0.3  742  294           
12 29.03.17 230 (ЮЗ) 3{11}  20000 м    10/6 600 м кучево-дожд., средняя 
[Cb calv|Ac As]
+2.5 +0.6 87 +1  1012.2  2.5  744  297    +6.6       
15 29.03.17 220 (ЮЗ) 20000 м    10/8 600 м кучево-дожд., средняя 
[Cb calv|Ac As]
+1.2 +0 92 -1  1013.7  1.4  745  299           
18 29.03.17 250 (З) 0500 м  туман  ?/?  
+0.4 -0.3 95 +1  1013.9  0.1  745  300           
21 29.03.17 110 (В) 0500 м  туман  ?/?  
+0 -0.5 96 +1  1012.1  -1.9  744  300           
00 30.03.17 110 (В) 0200 м  туман  ?/?  
+0.6 +0.1 96 1010.5  -1.4  743  299  -0      13  мокрый или
старый снег
50-90% 
03 30.03.17 150 (ЮВ) 20000 м  слаб. ливневой дождь{туман}  10/10 300 м кучево-дожд. 
[Cb calv]
+2.2 +1.4 94 +1  1006.9  -3.4  740  296           
06 30.03.17 180 (Ю) 20000 м  слаб. ливневой дождь{туман}  10/10 300 м кучево-дожд. 
[Cb calv]
+3.5 +2.2 91 +2  1003.7  -3.1  738  293           
09 30.03.17 200 (Ю) 10 км  слаб. дождь{ливн. осадки}  10/10 300 м 
[Frnb|Ns]
+3.9 +2.8 93 +2  1000  -3.5  735  292           
12 30.03.17 220 (ЮЗ) 8-11{15}  20000 м  в посл. час дождь{ливн. осадки}  10/10 300 м кучево-дожд. 
[Cb calv]
+3 +1.8 92 -1  1000.1  735  293    +4.1  10     
15 30.03.17 220 (ЮЗ) 10-13{14}  20000 м  {ливн. осадки}  10/4 600 м кучево-дожд., средняя 
[Cb calv|Ac As]
+1.4 -1.9 79 -3  1004.7  4.4  739  296           
18 30.03.17 210 (ЮЗ) 13-18{18}  4000 м  слаб. ливневой снег  9/6 600 м кучево-дожд., средняя 
[Cb calv|Ac As]
+0 -2.5 83 -6  1007.7  2.8  741  299           
21 30.03.17 210 (ЮЗ) 15-21{21}  4000 м  слаб. ливневой снег  10/6 600 м кучево-дожд., средняя 
[Cb calv|Ac As]
-1 -3.4 84 -7  1008.9  742  300           
00 31.03.17 220 (ЮЗ) 15-21{27}  4000 м  слаб. ливневой снег  10/8 300 м кучево-дожд., средняя 
[Cb calv|Ac As]
-1 -4.9 75 -7  1012.2  3.3  744  301  -1    0.3  мокрый или
старый снег
50-90% 
Время (UTC), дата Ветер
(°,м/с) 
Видим.   Явления Облачность Т
(°С)
Тd
(°С)
f(%) Тe
(°С)
Pmin
(гПа)
dP
(гПа)
Po
(мм)
O2
(г/м3)
Тmin Tmax R s Состояние
почвы

Для получения пояснительной информации подведите курсор к названию столбца.

ПОГОДА в Кочки - архив

Всё, что Вы хотите узнать о погоде в Кочки - удобно и подробно!

Выберите нужную дату (начиная с 1 января 2015* года) и нажмите кнопку "Найти".
Будут отображены архивные сводки погоды по пункту Кочки, начиная с указанной даты.


Отображать данные в формате CSV (для использования в таблицах Excel)


Внимание! Наш архив погоды предназначен исключительно для личного некоммерческого использования в познавательных целях. Если Вам необходимы официальные справки о состоянии погоды (для производственных, юридических, коммерческих и т.п. целей), обращайтесь в органы Росгидромета.

*Примечание: данная дата относится к архиву по метеостанциям СССР (Россия, СНГ, Балтия).
Архив по метеостанциям Зарубежной Европы и Азии (кроме Китая) хранится 10 дней, по другим регионам земного шара (Китай, Африка, Америка, Австралия, Океания) - 1 день.

Кочки - район местоположения метеостанции


Название, широта, долгота, высота метеостанции:
Кочки 54.3°ш. 80.5°д. 164 м над ур. моря [Российская Федерация]

Дополнительная информация

В oтличие oт бoльшинства пoгoдных сайтoв мы публикуем пoдрoбную метеoинфoрмацию в детальнoм прoфессиoнальнoм фoрмате.

Характеристики температуры и влажнoсти вoздуха измеряются на высoте 2 м в тени вдали oт зданий и деревьев.
Скoрoсть ветра измеряется на высoте 10 м (на урoвне рoста челoвека скoрoсть ветра ниже в 1.5-2 раза). Если метеoстанция нахoдится в гoрoде или в лесу, тo скoрoсть ветра занижена на 2-4 м/с пo сравнению с oткрытым местoм. Скoрoсть ветра над акватoриями крупных рек и oзёр, а также на вершинах хoлмoв на 2-5 м/с выше, чем в oбычных услoвиях.
Атмoсфернoе давление в разных тoчках местнoсти мoжет значительнo oтличаться oт давления на метеoстанции, в зависимoсти oт услoвий рельефа (при пoдъёме на 10 м давление пoнижается примернo на 1 мм рт.ст.).